Theta_e
294 289 288 288 291 292 293 291 291 289 290 288 286 285 283 283 285 289 290 292 290 286 285 286 286 286 288 289 291 292 293 292 293 294 294 296 299 299 306 310 313 313 311 310 309 309 307 306 305 304 303 301 301 302 303 302 302 302 301 302 300 300 301 300 299 299 299 297 297 298 297 296 295 295 295 293 293 294 294 294 293 293 293 293 292 292
293 288 289 292 293 293 292 292 292 290 290 287 285 284 283 285 283 288 289 291 291 285 284 287 286 286 288 290 291 292 292 291 292 293 294 295 297 299 302 307 312 311 305 306 305 305 304 304 302 302 301 300 299 301 302 302 302 303 303 303 302 300 300 300 299 299 300 299 299 298 297 296 295 294 293 292 292 292 293 293 293 293 293 293 292 291
289 288 292 294 295 294 293 292 291 290 288 288 284 284 283 283 286 289 290 291 290 286 283 286 284 286 288 290 292 292 292 293 294 295 295 295 296 298 299 306 308 301 302 303 303 303 302 302 302 301 301 301 301 301 302 302 302 302 301 302 301 302 301 301 301 301 300 301 301 300 298 297 295 297 297 295 294 292 291 292 292 292 292 292 291 291
285 290 293 295 293 291 291 292 290 289 287 286 285 283 281 285 283 281 286 287 288 286 284 285 283 285 288 290 290 292 292 293 295 296 297 297 296 297 299 304 303 302 299 300 299 300 300 300 301 300 300 301 301 300 301 302 301 301 302 302 302 302 302 301 302 302 301 301 300 300 298 297 297 295 295 293 292 291 290 290 291 292 292 291 291 291
287 291 296 295 293 291 288 291 289 287 285 288 287 285 284 284 286 285 285 286 287 287 287 285 282 282 286 286 288 292 294 293 294 295 295 296 298 300 302 306 305 302 301 299 299 299 299 300 299 300 301 301 300 300 300 301 301 301 301 302 303 302 301 302 303 302 301 299 297 297 296 296 295 294 293 291 289 289 290 289 290 290 291 291 290 290
289 294 295 292 292 291 290 287 288 287 284 287 290 288 287 287 286 286 287 285 282 281 285 282 276 278 285 286 287 290 291 291 294 293 293 295 298 300 300 304 306 305 304 301 299 299 300 299 300 300 300 300 300 301 302 302 302 303 302 302 302 302 301 302 302 301 300 298 296 295 295 294 295 292 290 289 289 289 290 290 290 290 290 290 290 290
289 294 292 290 290 287 288 286 288 288 285 284 286 291 290 288 287 286 285 283 278 276 284 286 276 274 284 284 286 288 289 290 293 293 293 294 297 299 302 305 304 303 303 302 301 301 299 299 299 300 300 300 300 301 302 302 303 302 302 302 303 302 302 302 301 301 300 298 298 298 297 298 297 294 291 292 292 292 292 291 289 289 289 290 289 290
292 292 289 289 288 287 286 286 289 289 286 284 292 289 289 287 285 285 284 282 281 286 285 284 282 276 276 282 287 289 288 288 290 291 292 293 296 299 302 305 305 303 302 300 300 300 300 300 299 298 300 301 301 301 301 302 303 302 302 303 303 303 302 302 301 300 300 298 298 299 299 299 298 294 292 293 293 293 291 290 289 289 289 289 290 289
290 289 288 286 284 286 286 288 291 292 287 289 293 290 286 286 286 285 284 282 282 280 277 281 283 276 276 282 288 288 285 287 288 290 291 292 296 300 303 305 305 305 302 300 299 299 299 299 300 300 300 301 302 301 301 301 302 303 303 303 303 302 302 302 301 301 301 300 299 300 300 299 297 298 294 294 293 292 290 289 289 289 288 288 289 289
291 291 287 285 286 285 288 291 291 290 286 291 291 291 289 288 286 285 283 282 281 278 274 279 282 275 276 283 285 288 286 285 288 290 291 292 297 301 303 304 304 304 303 302 301 301 300 301 301 301 302 302 301 301 302 302 303 303 302 302 302 302 302 302 301 301 300 301 301 300 299 298 297 296 295 293 292 291 290 289 288 288 287 287 287 288
292 297 290 288 286 287 288 291 292 292 292 294 290 286 286 286 285 284 283 282 279 274 276 281 282 279 274 282 285 285 285 288 289 291 291 293 298 302 303 303 302 302 301 301 301 301 301 302 301 302 300 301 302 301 301 301 302 302 302 302 301 302 302 301 300 301 300 301 301 300 300 299 296 296 294 292 291 290 289 289 288 287 287 287 287 288
290 288 287 289 294 291 291 290 294 294 292 289 286 284 284 283 284 282 281 281 275 273 280 282 282 281 272 279 286 289 292 292 291 290 290 294 297 301 303 302 302 302 302 301 300 300 300 300 300 301 300 300 301 301 301 301 302 302 302 302 301 301 301 301 301 301 301 301 301 301 300 299 298 295 293 292 290 290 289 289 287 286 286 286 287 287
285 287 289 291 293 292 292 290 291 291 291 289 286 285 279 277 279 275 277 273 274 274 280 283 283 278 277 283 287 289 291 292 293 292 292 296 297 301 303 302 302 303 302 301 300 299 299 299 298 299 299 300 300 300 301 301 302 302 302 301 301 301 302 301 301 301 301 301 300 300 300 300 298 296 295 294 292 291 290 289 287 286 286 286 286 286
283 285 288 290 289 294 294 285 286 285 288 287 284 282 278 275 275 273 277 278 279 282 282 281 284 278 283 286 291 291 294 294 295 296 295 299 299 302 304 303 303 302 301 301 300 299 299 299 299 299 299 299 299 300 300 301 301 301 301 301 300 301 301 301 301 301 301 301 300 300 300 300 298 295 294 294 294 293 292 291 289 288 288 287 287 287
276 279 286 288 285 292 291 290 290 286 286 285 286 284 280 278 274 271 275 274 276 279 280 283 278 277 279 283 289 292 295 295 297 297 300 301 302 303 304 303 302 302 301 301 300 300 300 299 299 299 299 299 300 300 300 301 301 301 301 301 301 300 301 301 301 301 301 301 301 300 300 300 299 297 295 295 296 295 293 293 293 291 290 289 289 289
279 278 286 291 291 292 288 293 293 289 286 287 287 287 281 279 283 274 278 277 277 278 278 278 278 284 284 290 291 294 294 295 297 298 300 300 303 303 301 300 300 301 301 301 300 300 300 300 300 300 300 300 300 300 301 301 301 301 301 302 301 301 300 301 301 301 301 301 302 301 300 300 299 297 296 296 296 295 294 292 292 291 291 290 289 289
282 280 289 290 292 290 292 293 292 291 279 285 286 280 281 287 282 277 278 280 280 278 276 283 283 285 290 290 289 292 294 295 297 298 299 300 303 302 301 300 300 300 301 301 301 300 300 300 300 301 300 300 300 300 300 301 302 301 301 301 301 301 301 300 301 301 301 301 301 301 300 299 297 296 295 295 295 294 294 293 292 292 291 290 289 288
279 279 288 287 288 291 290 290 291 291 290 287 280 283 288 288 284 280 275 279 279 276 278 282 280 280 281 279 287 287 288 293 296 297 299 300 302 301 300 300 301 301 301 302 302 301 301 301 301 301 301 301 300 300 301 301 302 302 302 301 301 300 300 300 300 300 301 301 300 300 300 299 298 296 296 296 295 295 294 294 293 293 291 290 289 289
284 279 285 287 288 290 290 290 288 291 291 286 283 289 279 275 275 281 279 273 273 274 277 280 281 280 279 279 284 284 284 288 295 297 298 299 300 300 300 300 301 301 301 301 302 301 301 301 301 301 301 301 301 301 301 301 302 302 302 302 301 300 301 301 301 301 301 301 301 301 300 299 298 297 297 297 297 295 294 294 293 292 291 291 290 288
286 278 282 287 287 288 288 289 282 285 289 287 288 285 285 282 278 275 279 278 277 275 276 277 281 278 281 281 284 284 285 287 295 296 298 300 300 300 300 300 301 301 301 301 302 302 301 302 302 302 301 301 301 301 301 301 302 302 302 301 301 301 302 301 301 301 301 301 301 300 300 300 299 298 297 297 296 295 294 294 293 292 291 290 289 288
282 284 276 285 288 288 283 286 283 284 282 283 284 282 282 280 283 280 280 278 277 275 275 275 277 279 282 285 285 285 286 288 291 297 299 300 301 301 301 301 302 302 302 301 302 302 302 302 303 303 303 302 303 302 302 302 302 302 302 301 301 301 301 301 301 301 301 301 301 301 300 299 299 298 298 297 296 295 295 295 294 293 292 290 289 288
281 281 277 281 281 282 283 287 286 285 285 283 282 280 281 277 275 274 275 282 279 276 275 274 275 281 285 288 287 288 290 288 290 293 299 300 301 301 302 302 302 302 302 302 303 303 303 302 303 303 303 303 302 302 301 302 302 301 301 301 301 301 301 301 301 301 301 301 301 300 300 300 299 298 298 298 297 295 294 294 293 293 291 290 289 288
285 283 279 277 280 281 286 285 285 285 285 284 284 282 282 281 279 276 272 277 278 280 279 278 276 279 287 288 287 289 290 290 290 292 298 300 301 302 302 303 304 304 303 303 303 303 303 303 302 302 302 301 301 301 301 301 301 301 301 301 301 301 302 302 301 302 301 301 300 300 300 300 299 299 298 297 296 295 295 295 295 294 292 291 290 287
286 280 277 280 284 285 285 284 283 283 284 283 285 283 282 278 278 276 277 278 275 278 277 278 276 280 287 289 289 290 291 293 293 292 298 299 301 302 303 303 303 304 304 304 304 304 303 303 302 301 300 301 301 301 301 301 301 302 302 301 302 301 302 301 301 301 301 300 300 300 300 300 300 299 298 297 297 297 296 296 295 294 293 292 290 287
280 281 279 277 278 281 282 281 282 281 283 283 282 283 284 283 281 280 279 280 275 278 277 275 275 279 287 290 291 291 292 292 293 295 297 300 301 302 303 304 304 305 305 304 304 303 302 301 300 299 300 300 300 301 301 301 302 302 302 302 301 301 302 301 301 301 300 300 300 300 301 300 299 298 298 298 299 297 296 295 294 292 292 291 288 286
282 281 280 275 272 271 271 273 275 277 280 282 283 283 284 280 278 280 277 279 276 279 279 277 277 283 287 289 289 289 290 290 292 293 296 299 301 302 303 304 304 304 304 304 304 303 301 300 300 300 300 301 301 301 301 302 302 302 302 302 303 302 302 301 301 300 300 300 299 299 300 300 299 298 299 298 298 297 295 294 293 291 291 290 288 286
280 277 278 279 278 277 278 280 283 282 280 278 280 281 282 282 281 280 280 279 277 278 279 280 280 281 284 286 287 288 288 287 289 290 291 293 295 300 303 303 303 303 303 303 303 304 302 301 301 301 301 301 301 301 302 302 302 302 302 302 303 303 302 301 301 300 300 300 299 299 299 299 299 299 299 298 297 297 296 294 292 291 289 289 288 287
278 278 278 276 278 280 282 281 282 282 278 279 279 279 282 281 280 282 281 278 281 279 279 282 283 282 283 285 286 287 288 288 289 289 290 291 292 294 297 300 299 303 303 304 304 303 302 302 303 302 302 301 301 301 302 302 302 302 302 302 302 303 302 302 301 300 300 299 299 299 300 300 300 299 299 300 298 297 296 294 292 291 289 288 288 287
280 277 275 272 274 279 280 280 281 279 278 278 279 279 279 280 279 282 282 283 282 281 278 282 283 282 283 285 287 288 288 288 288 288 290 289 290 293 296 298 300 300 300 302 303 304 303 302 302 303 303 302 302 301 301 301 301 302 303 303 303 302 302 302 301 300 299 299 298 299 300 300 300 301 298 298 298 297 295 294 292 291 289 288 287 287
280 278 274 271 273 275 277 277 277 276 277 278 278 279 280 279 280 281 282 283 282 283 283 283 283 283 284 285 287 288 289 289 289 290 290 290 291 295 298 298 298 298 299 301 302 303 304 304 304 304 303 302 302 302 301 301 301 302 302 302 303 302 303 302 301 300 299 299 299 299 300 300 300 300 300 299 297 296 295 294 292 291 289 288 287 287
279 279 277 271 273 276 274 274 276 276 273 274 280 280 280 279 279 280 281 283 283 283 284 284 284 284 287 289 288 290 290 291 291 289 289 290 292 294 297 296 296 297 297 298 299 300 301 301 303 304 303 303 303 302 302 302 302 303 303 303 303 302 303 303 301 301 300 300 300 301 300 300 300 300 299 299 298 297 294 293 292 291 289 288 287 287
279 279 272 273 275 278 273 274 274 273 272 271 275 280 281 281 280 281 280 283 284 282 284 284 284 284 289 290 288 289 289 289 287 287 288 289 290 291 293 294 294 296 297 298 298 297 298 300 300 302 303 303 303 303 303 303 303 303 303 303 303 303 303 302 302 301 301 301 301 300 299 299 300 300 300 299 298 298 296 294 292 291 289 288 287 287
280 278 278 276 276 277 275 273 273 269 272 277 280 280 280 282 280 280 279 279 284 285 283 282 283 287 289 289 287 289 289 289 289 288 287 288 289 289 290 292 293 294 294 294 295 296 298 299 301 303 303 304 304 304 304 305 304 303 304 304 304 303 302 301 301 301 300 298 298 298 298 298 299 299 299 298 298 297 296 294 293 291 290 288 288 286
277 279 277 274 274 278 278 274 270 276 275 276 282 282 280 280 280 279 280 280 282 286 286 286 287 288 287 288 288 288 288 288 288 289 290 288 289 290 290 290 290 291 292 293 293 293 295 296 298 299 301 304 305 305 305 305 304 305 306 305 304 302 301 300 300 300 299 297 296 297 297 298 299 299 298 298 297 297 296 294 293 292 292 290 288 286
277 276 276 272 273 278 277 277 278 271 274 282 281 280 280 280 280 281 281 281 280 282 283 284 286 285 288 289 290 290 290 290 289 288 289 290 290 289 289 289 289 289 290 291 293 293 293 293 293 294 294 296 298 299 300 301 303 300 299 300 299 299 300 299 299 297 297 295 295 296 297 299 298 298 297 297 297 296 295 294 294 293 292 290 288 287
277 277 275 274 275 275 277 277 273 274 281 280 280 280 279 279 279 279 282 284 282 281 284 284 287 287 286 286 288 289 288 287 286 288 289 290 290 291 290 289 289 289 290 290 291 293 292 291 291 293 294 295 293 294 298 301 300 299 298 296 298 297 298 298 298 298 297 296 296 296 298 298 298 297 296 296 296 295 294 294 293 292 291 290 289 288
280 276 276 277 275 274 271 271 277 278 279 280 280 281 282 283 282 282 281 282 284 282 282 284 285 287 286 286 285 286 285 284 287 289 289 288 288 288 289 289 289 288 288 289 289 290 291 290 291 291 291 291 293 293 294 295 295 297 295 294 295 296 296 297 297 297 297 297 297 297 297 297 296 295 295 295 294 293 293 293 292 292 291 289 288 288
281 278 278 276 275 274 275 276 276 276 271 282 283 281 280 281 282 282 282 282 286 285 284 284 284 284 285 286 285 283 282 285 284 287 287 285 285 285 286 287 287 286 287 288 288 288 288 289 288 288 289 290 291 293 293 293 294 296 295 295 295 295 295 296 296 297 297 298 298 298 298 297 297 296 294 293 293 293 293 293 293 292 292 290 289 288
276 277 278 278 275 274 272 273 269 270 277 284 283 282 282 281 281 281 282 281 285 285 286 284 285 286 285 285 284 283 285 284 283 286 289 288 287 286 285 287 286 287 287 288 289 290 289 288 287 287 288 290 292 292 292 292 294 294 294 294 293 293 293 294 298 299 299 300 300 300 298 297 296 295 294 293 293 293 293 293 293 292 292 291 290 289
275 274 276 277 272 270 271 272 275 271 276 283 282 280 281 280 280 281 278 279 287 285 286 285 286 286 288 286 284 286 287 285 285 289 288 287 285 285 285 288 288 288 289 288 287 287 287 286 287 288 290 291 293 291 291 291 293 293 294 294 294 293 294 295 297 298 299 299 298 297 297 296 296 295 295 295 294 294 293 293 292 292 290 290 290 290
274 274 272 275 274 273 273 274 274 279 282 282 281 280 280 280 282 280 276 283 286 286 285 286 287 288 288 286 285 287 288 290 293 290 285 283 284 287 285 285 286 287 287 287 287 285 286 286 288 290 291 291 289 288 290 292 293 293 294 294 293 293 294 296 296 296 296 296 295 295 295 295 295 295 296 296 295 294 293 292 292 291 290 289 290 289
269 268 267 268 272 276 274 274 277 277 284 284 281 281 280 281 279 279 286 287 288 286 285 286 287 288 287 287 288 288 291 290 286 285 285 286 286 286 286 285 285 284 284 284 283 283 284 285 285 286 286 287 287 288 289 291 292 293 293 293 293 294 296 296 295 294 294 294 294 294 294 294 294 294 295 294 295 293 291 291 291 291 290 289 289 288
278 274 276 276 272 269 270 272 274 274 282 283 282 280 279 283 284 288 287 284 285 287 287 284 286 288 286 287 288 289 288 287 287 287 288 287 286 288 288 286 286 287 287 285 284 282 283 285 285 286 286 285 285 287 289 290 291 292 291 292 294 295 295 294 294 294 294 293 293 293 293 293 291 290 292 291 291 292 291 290 289 290 290 289 288 288
280 278 276 275 275 277 270 271 276 284 287 283 286 285 285 288 289 288 288 289 286 284 286 287 285 287 287 289 289 287 286 286 287 286 286 286 285 285 285 285 284 284 284 284 284 284 282 284 285 285 285 284 284 286 288 289 291 291 289 291 294 291 290 292 292 292 292 291 291 291 290 289 289 289 290 289 289 289 290 289 289 289 289 289 289 288
281 282 282 281 279 279 280 283 287 284 285 287 285 289 290 289 286 288 289 290 289 288 285 287 290 288 286 288 287 287 286 286 287 287 286 288 287 286 286 287 286 285 285 285 285 283 282 285 286 286 285 285 284 285 287 289 290 288 289 292 291 289 289 289 288 289 289 289 289 288 288 288 288 288 288 288 289 289 289 288 288 289 288 288 288 289
280 280 281 282 283 282 283 284 286 284 284 286 286 286 286 287 285 283 286 287 288 289 287 289 289 288 285 284 286 286 286 288 286 286 284 284 284 285 284 284 284 284 284 283 283 283 283 283 283 283 285 285 284 284 286 288 290 288 290 291 290 291 288 287 285 286 286 287 288 287 287 287 287 287 287 287 288 289 290 289 288 289 289 289 289 289
280 278 281 282 283 281 281 284 282 286 286 285 286 286 285 285 286 286 285 286 289 289 286 286 287 286 286 284 286 288 289 287 286 287 285 285 285 285 285 284 285 285 285 285 285 282 282 283 284 285 285 286 285 284 285 286 288 290 291 289 290 289 288 286 285 286 286 286 286 286 286 286 287 288 287 286 288 289 289 290 290 289 289 289 289 289
282 280 282 282 280 282 284 285 284 285 285 286 286 286 287 288 286 285 286 288 288 287 286 286 284 284 284 285 286 286 288 287 285 287 286 286 287 286 286 285 286 285 285 284 282 281 283 283 286 286 286 287 288 285 284 285 286 287 288 288 287 286 286 285 285 286 286 285 286 287 286 286 283 286 288 287 287 288 288 289 289 289 289 289 289 289
280 280 282 281 281 283 285 286 287 287 288 287 285 285 286 287 287 287 285 284 284 284 285 284 283 287 285 288 286 285 285 286 286 287 286 287 286 286 286 286 285 285 285 285 284 281 284 285 285 285 285 287 287 285 284 284 285 285 285 286 286 285 285 286 285 285 286 286 286 287 286 287 287 287 288 287 286 287 288 288 288 288 289 290 291 290
281 281 282 280 280 281 283 287 285 285 286 291 290 289 286 285 284 284 284 282 283 283 284 284 284 284 284 285 285 285 285 287 287 285 284 285 286 286 285 285 285 284 284 283 282 281 282 282 282 283 284 286 286 285 284 285 285 284 284 284 284 284 285 285 286 285 286 287 287 287 287 286 287 287 287 287 288 286 286 283 286 288 289 289 288 287
284 285 283 283 283 284 288 288 288 289 288 289 290 288 285 282 282 283 284 285 286 285 285 284 284 284 283 283 283 284 285 287 288 285 284 285 286 286 285 284 284 285 285 283 283 284 283 283 282 281 282 284 284 284 284 284 285 285 284 283 283 283 284 285 286 287 287 287 287 286 287 287 287 287 287 287 288 287 287 288 287 285 285 286 286 286
Wind_Speed
2 5 6 7 6 7 6 6 10 9 11 11 11 13 13 13 17 18 17 9 6 9 16 16 18 21 21 19 18 16 14 15 15 15 14 12 10 12 15 15 13 12 11 12 15 15 16 15 12 10 10 13 14 13 13 15 15 13 12 13 14 11 11 10 9 7 7 7 7 5 4 5 4 5 4 3 2 2 3 3 3 4 4 4 3 2
3 6 8 8 8 8 6 6 8 11 12 12 12 12 12 13 16 12 12 4 7 7 10 9 15 20 19 18 17 14 14 17 16 15 16 15 13 12 15 16 14 7 8 12 11 12 14 14 15 14 10 12 17 14 15 14 13 13 11 10 11 11 9 9 9 8 6 5 5 6 5 5 5 6 5 3 2 2 3 3 3 4 4 3 3 2
5 8 10 6 4 4 4 5 7 10 12 11 10 10 11 13 12 16 17 9 6 7 14 14 17 19 18 18 17 16 16 15 14 15 16 16 15 12 12 15 9 10 13 11 12 13 13 17 17 13 13 14 14 13 16 14 14 14 14 12 10 6 8 8 8 7 6 4 4 4 6 6 5 3 3 3 3 3 3 3 3 4 4 3 3 2
8 5 3 4 2 4 8 6 7 8 9 9 9 9 12 9 7 7 3 2 8 7 5 4 12 14 14 14 16 17 16 16 16 16 16 14 15 15 14 11 7 12 14 14 14 14 13 15 14 14 13 14 14 15 12 12 14 12 11 12 12 13 11 10 9 7 6 6 6 6 7 6 3 4 5 5 3 3 4 3 3 3 3 3 3 2
11 19 13 10 8 7 10 8 5 6 10 10 12 12 12 13 13 12 8 3 5 11 11 13 14 18 14 15 15 15 17 16 15 16 17 16 14 14 11 10 11 15 16 14 14 14 15 14 15 16 13 13 14 15 17 17 16 11 14 13 13 11 10 9 8 8 8 8 8 7 7 5 7 6 4 4 3 3 3 3 3 4 3 3 3 2
15 10 4 2 1 3 5 8 7 6 9 11 13 14 16 14 15 14 13 11 6 8 10 7 6 9 7 16 18 15 12 15 16 16 18 17 15 14 14 11 12 14 16 19 18 19 18 18 14 14 15 14 10 11 13 15 16 15 14 15 13 12 12 11 10 9 8 7 8 8 7 6 4 5 6 7 7 6 5 4 4 4 3 3 3 2
8 2 4 4 3 3 6 8 7 4 8 10 10 4 12 14 13 14 13 5 5 7 2 12 8 13 6 11 11 11 11 14 14 17 18 17 14 13 12 8 11 13 14 13 15 17 18 16 17 17 17 16 17 14 15 14 13 13 14 14 13 12 10 11 11 12 9 8 7 9 8 6 7 7 5 3 4 5 4 5 6 4 4 3 3 3
3 2 1 1 3 4 6 8 2 8 6 9 2 3 6 11 12 13 12 11 9 8 2 9 9 10 14 14 9 13 13 13 14 16 19 17 15 13 11 10 12 12 15 15 16 16 15 17 17 19 19 17 16 16 16 12 11 14 16 17 14 11 11 11 11 12 11 11 9 9 7 6 6 5 5 6 5 5 5 5 5 4 4 3 3 3
2 7 1 2 2 5 8 5 3 6 5 10 4 2 6 9 11 11 10 9 10 7 9 10 10 5 9 10 4 9 13 15 16 15 18 18 15 13 11 12 16 15 13 16 15 17 17 16 16 14 15 15 15 15 16 13 13 12 12 14 14 11 11 11 11 10 8 8 9 8 7 6 3 3 4 5 5 5 5 6 5 4 4 4 3 3
1 3 4 5 2 10 5 2 2 4 6 5 4 8 10 9 8 9 7 7 7 5 12 8 13 8 13 12 11 11 13 15 14 16 18 18 15 12 10 13 16 14 16 13 17 18 17 15 15 13 12 15 15 12 10 10 10 10 13 12 13 14 11 12 12 10 9 7 7 7 7 8 5 3 4 5 5 5 5 6 6 5 4 4 4 4
14 2 7 2 8 4 3 5 3 8 13 10 10 8 10 9 8 6 5 4 3 7 16 7 16 10 8 8 4 5 8 11 11 11 14 16 15 14 12 14 13 13 13 14 14 15 15 13 15 12 13 12 11 10 13 12 11 11 12 15 14 13 10 11 12 12 11 8 7 8 7 8 8 6 6 5 5 5 6 6 6 5 4 4 4 3
11 2 1 2 5 1 1 9 4 6 4 3 4 6 9 7 4 4 4 4 5 11 3 11 15 15 8 8 4 5 5 7 10 13 16 16 17 14 12 12 12 12 13 13 14 14 14 13 12 11 12 13 12 14 14 11 12 13 11 11 13 13 13 11 12 12 11 10 8 6 7 7 8 7 6 7 7 6 7 6 6 5 4 4 4 3
3 1 1 3 1 5 3 6 4 4 2 3 8 9 7 4 2 4 5 5 9 10 2 5 11 6 14 13 10 10 8 6 8 11 15 16 16 14 13 14 12 9 12 14 13 13 14 14 15 13 14 14 16 17 18 15 13 12 10 13 15 16 14 13 13 13 12 11 10 8 8 7 7 7 7 6 5 6 5 5 6 6 5 5 5 5
7 1 0 2 1 3 3 5 6 4 1 5 7 9 7 6 5 8 7 6 7 7 3 4 10 8 5 5 5 10 10 8 7 8 11 15 16 14 13 13 12 10 12 13 14 15 14 14 15 14 17 18 17 18 17 15 16 16 15 16 15 15 14 12 13 13 13 12 10 9 9 8 8 7 7 7 7 7 6 6 6 7 6 6 6 6
9 4 1 1 2 4 3 5 5 6 8 4 2 4 6 5 4 8 6 7 7 7 4 3 6 3 3 1 9 10 10 7 5 6 9 13 14 13 13 13 14 12 11 12 13 14 15 14 16 16 15 15 16 18 16 14 15 15 16 16 17 16 15 13 13 12 12 10 11 10 10 9 8 8 7 7 7 7 7 6 6 7 6 6 6 6
4 8 9 4 5 4 4 1 2 2 6 3 3 5 5 6 4 8 7 8 7 9 3 4 4 0 3 1 8 8 4 3 3 7 10 12 12 12 12 13 12 11 12 12 12 14 14 12 13 12 12 13 14 16 14 16 15 15 16 18 18 17 16 15 14 12 11 10 10 11 11 11 9 7 6 6 6 5 6 6 7 6 6 5 5 5
4 6 6 4 4 6 5 1 3 2 4 3 3 5 9 9 7 7 10 12 13 8 7 2 4 1 3 3 8 12 6 2 4 9 12 13 14 13 11 11 11 11 12 12 11 11 12 11 11 11 13 12 12 14 17 18 18 18 18 18 20 17 15 15 16 14 11 10 10 11 10 10 9 8 8 7 6 6 5 5 5 5 5 5 5 5
3 15 9 5 1 2 1 2 2 3 1 4 3 5 12 2 3 3 5 6 6 6 1 1 5 6 8 3 8 14 13 1 7 11 12 13 13 11 10 11 11 11 12 12 11 10 11 11 13 12 11 13 15 15 16 19 17 15 15 16 19 18 15 12 11 11 11 12 11 10 11 8 6 7 8 7 6 6 6 5 5 5 5 7 6 6
1 10 1 3 3 2 3 2 5 5 2 3 4 2 7 6 4 1 5 5 6 6 5 1 1 2 5 6 10 14 11 10 8 8 10 11 11 10 10 10 10 10 10 10 11 10 12 11 12 12 13 14 13 13 14 14 16 15 16 16 17 17 14 13 10 10 9 11 8 8 8 9 8 7 8 8 7 7 7 8 7 6 5 5 6 6
3 4 5 5 3 3 2 2 4 1 5 1 3 3 2 4 6 7 2 4 2 7 6 1 1 3 4 5 12 8 10 10 3 9 11 11 11 8 9 10 11 12 11 10 11 11 11 11 14 14 15 15 14 13 13 14 13 16 16 15 15 11 11 13 15 13 12 11 8 7 7 8 8 9 9 8 8 8 9 9 7 7 7 7 6 7
2 1 7 2 4 6 2 3 3 5 7 2 2 2 1 2 5 5 5 4 3 4 4 5 3 3 3 6 9 7 8 7 8 3 6 7 7 9 9 9 10 11 10 10 10 10 11 11 13 14 14 13 12 11 11 13 14 15 14 12 12 14 15 16 14 13 11 10 11 9 10 11 10 11 8 8 9 9 9 8 7 7 6 6 7 7
2 3 8 13 12 6 7 3 0 0 0 4 3 4 2 9 8 5 4 3 2 2 4 4 3 3 4 5 8 10 4 5 6 5 7 6 6 6 7 8 9 9 9 10 10 11 11 11 12 12 12 12 13 13 13 12 12 14 14 13 13 14 16 15 14 15 14 12 13 12 11 11 8 7 7 9 8 8 7 7 7 7 6 8 7 7
2 2 5 10 7 9 11 5 3 3 3 2 3 2 1 2 3 3 6 3 5 2 2 3 4 2 4 7 7 7 7 4 5 6 6 6 7 7 7 6 7 8 9 9 9 10 10 11 12 12 13 13 13 13 13 12 13 13 14 13 14 16 17 16 15 14 13 12 10 11 9 9 9 9 10 10 9 10 9 8 8 8 8 8 6 6
2 2 5 8 10 12 7 4 3 2 1 3 4 2 1 5 3 5 5 5 4 6 4 2 1 3 5 9 8 5 4 4 4 3 4 5 5 7 9 9 9 9 10 10 8 8 8 10 10 10 11 11 12 12 13 13 12 13 13 13 13 16 17 16 14 12 10 9 10 11 9 10 10 11 10 11 10 10 9 8 8 8 8 8 6 7
3 1 1 8 8 6 1 3 2 2 2 1 7 3 3 3 3 7 6 3 3 3 3 4 5 4 7 7 6 9 9 9 9 6 2 6 5 6 7 7 7 8 8 9 9 10 10 10 10 10 10 11 12 12 13 13 13 13 13 13 13 13 15 14 10 11 10 9 11 11 11 11 10 11 12 12 9 9 8 7 6 6 8 7 7 6
3 2 1 4 7 9 11 11 12 11 9 9 3 2 3 3 9 7 1 2 3 4 4 3 4 3 3 7 9 10 9 8 9 8 7 5 4 5 6 6 6 7 7 8 9 9 10 9 9 10 11 11 11 12 12 13 13 13 13 14 13 13 13 13 10 11 11 10 12 13 14 12 11 12 13 11 8 9 9 8 7 7 6 7 7 6
1 1 2 4 4 6 8 10 3 4 10 5 11 12 9 4 2 4 4 2 4 6 4 3 4 7 9 12 12 11 9 9 9 8 8 6 6 3 4 6 4 4 5 7 8 8 8 8 10 11 11 10 11 11 11 12 12 12 13 14 14 13 13 12 11 12 12 12 13 12 13 13 13 12 12 11 9 8 7 8 8 9 9 7 7 9
1 3 6 8 11 13 14 17 15 9 9 12 10 11 10 9 7 7 7 6 7 4 4 7 11 6 7 9 10 10 10 8 7 7 6 5 5 4 2 3 3 5 5 6 7 8 9 10 10 11 12 10 9 9 9 9 10 12 13 14 14 14 13 12 14 14 13 10 11 11 10 11 11 9 8 7 8 10 10 9 9 9 8 8 9 8
1 3 1 3 9 13 14 17 13 9 8 10 12 12 11 10 6 6 7 4 6 5 3 8 9 7 6 7 8 7 6 7 7 6 5 5 5 3 2 3 3 3 3 6 8 10 10 9 10 10 11 10 9 10 10 8 9 11 12 12 13 13 14 13 12 14 11 11 13 13 10 8 8 7 9 8 8 8 11 10 9 8 10 10 10 7
1 4 0 1 10 13 9 6 3 5 4 6 8 8 8 7 5 5 5 4 2 2 3 5 4 5 4 6 8 7 6 5 5 4 4 4 3 3 5 4 4 3 4 5 6 6 8 9 9 10 10 10 11 11 10 9 9 11 13 13 13 13 13 13 14 13 10 11 12 10 9 8 9 9 9 9 10 12 10 10 10 10 10 11 9 10
1 2 5 1 4 6 4 3 3 2 1 6 7 8 5 4 4 4 4 5 3 3 2 3 1 5 1 3 5 5 5 3 1 2 2 2 1 1 3 3 2 2 2 3 3 3 3 3 5 7 8 10 11 11 11 11 12 13 13 13 13 14 13 14 14 14 13 14 11 9 10 10 10 10 11 11 9 8 8 8 6 7 9 10 11 10
1 2 3 1 5 4 2 2 3 2 3 4 7 8 9 4 4 1 3 1 3 5 6 1 5 5 4 5 8 5 5 6 6 6 5 4 5 4 2 1 0 1 2 2 2 2 3 5 4 6 8 10 10 11 11 10 11 12 12 12 13 12 12 14 14 15 14 14 11 10 10 9 9 11 12 10 10 10 8 7 8 8 8 11 10 8
1 1 4 2 3 3 3 1 4 1 2 1 6 8 9 7 3 5 4 2 5 4 4 7 2 2 4 3 6 7 7 6 6 4 5 4 3 3 3 2 2 2 2 1 1 2 3 5 7 8 8 8 9 10 11 11 10 11 11 12 12 11 13 14 14 14 12 9 9 9 9 9 10 11 11 10 9 8 7 9 9 9 9 10 8 6
1 1 1 1 1 7 7 5 0 1 5 4 3 1 1 5 6 6 6 6 4 4 1 1 2 3 4 4 3 6 6 6 3 4 3 3 3 3 2 3 3 3 3 3 3 3 3 3 3 3 5 7 7 7 6 8 9 9 9 9 9 11 11 11 11 11 9 8 8 8 9 9 9 10 9 8 8 8 10 10 11 10 8 6 8 9
2 1 0 1 1 4 9 4 2 5 2 0 2 3 2 3 4 6 9 7 6 3 4 6 6 6 6 4 4 4 5 5 3 6 5 2 3 3 3 2 2 2 2 3 3 4 4 5 4 4 5 5 4 3 4 5 6 4 5 6 6 7 9 9 8 8 7 8 8 8 8 10 10 9 9 9 9 9 11 11 9 9 8 8 9 9
1 1 2 1 2 3 2 4 4 1 3 1 2 3 3 4 3 4 4 5 2 5 4 5 8 6 1 4 4 3 5 7 6 4 4 3 3 3 2 1 2 1 2 2 3 3 4 4 3 3 3 2 4 4 4 7 6 6 7 6 8 8 8 8 9 9 8 9 9 9 11 11 11 13 9 9 9 10 10 9 9 9 7 7 6 6
2 1 1 1 1 2 0 1 3 5 3 2 2 2 2 3 3 3 2 7 6 2 4 3 7 5 5 1 2 1 4 2 2 2 4 3 3 3 4 5 2 3 4 3 2 2 2 4 3 3 2 1 2 3 4 2 4 5 5 6 6 7 8 9 9 10 10 10 10 11 10 8 8 7 8 8 8 8 8 8 8 7 6 6 6 8
2 3 0 1 0 0 2 3 2 3 1 2 3 1 1 2 0 1 1 1 6 3 4 3 4 5 5 5 4 2 4 2 3 1 1 2 3 4 5 6 7 7 6 4 3 3 3 3 4 3 1 1 1 2 2 2 3 4 5 5 4 6 7 8 9 9 9 11 10 10 11 12 11 10 6 6 8 9 8 7 6 6 8 9 9 9
3 3 1 1 0 0 0 1 1 1 0 2 0 4 3 1 2 3 1 2 2 4 2 2 5 4 3 4 5 4 3 3 2 3 3 2 2 4 4 5 5 5 5 3 2 1 0 0 1 1 2 2 4 3 4 5 6 6 6 6 6 6 8 8 11 11 11 11 9 8 8 10 9 7 7 7 8 8 8 8 8 6 6 7 6 7
2 2 1 0 0 0 0 0 2 3 1 1 3 3 4 3 5 2 0 1 0 4 3 3 5 5 4 1 1 1 3 0 2 2 2 4 5 5 3 4 4 3 3 2 1 1 2 2 1 1 2 3 2 2 3 4 5 6 6 7 6 8 10 10 10 10 7 5 6 6 7 7 9 9 9 9 9 6 9 6 5 7 8 7 7 6
0 0 2 1 0 1 1 2 2 3 5 6 2 6 4 4 3 1 1 1 3 3 4 4 5 5 2 2 2 2 3 2 2 3 5 4 6 5 2 3 5 4 5 2 1 1 2 2 2 2 2 1 1 1 3 5 5 6 6 6 6 9 9 7 6 6 6 5 5 6 7 7 8 9 9 9 8 8 8 5 6 5 6 7 6 6
1 2 0 1 1 1 2 1 2 3 4 2 3 5 7 4 1 2 1 2 3 3 5 7 6 4 4 5 3 4 2 3 4 6 7 6 4 6 7 5 3 4 3 3 2 2 3 3 3 3 3 3 3 4 6 7 7 6 6 7 8 10 6 6 6 6 6 7 8 8 8 8 8 7 7 5 6 6 6 5 5 5 6 4 5 7
2 2 1 1 1 1 1 1 2 1 0 3 7 4 3 3 2 1 2 3 4 3 6 6 7 6 7 7 8 7 5 6 6 6 6 6 5 6 4 4 4 4 2 2 2 3 2 3 4 5 5 3 2 3 6 7 6 6 6 7 9 4 4 5 6 6 7 8 8 8 8 8 8 5 5 4 5 6 8 5 6 7 7 7 6 7
2 1 1 2 4 1 0 0 1 0 2 2 2 5 3 4 1 3 2 2 2 3 3 3 5 6 7 7 5 6 7 6 6 5 5 5 5 5 4 5 5 4 4 4 4 2 2 3 3 3 3 4 5 5 6 7 6 5 5 10 6 3 3 5 5 5 5 4 5 5 3 4 6 5 5 7 6 5 6 5 6 5 5 5 5 6
8 3 2 1 2 3 2 2 2 1 1 2 3 7 5 3 1 2 4 3 2 3 3 2 5 4 7 8 6 4 4 6 6 2 3 3 4 5 5 4 3 4 4 3 3 3 3 3 3 3 3 2 5 5 6 6 8 6 9 6 6 5 5 4 4 4 3 3 3 3 3 3 3 4 5 5 7 7 7 7 7 7 6 6 7 7
1 1 2 0 4 6 9 13 6 8 9 8 7 8 10 8 4 2 4 4 5 5 5 6 2 1 2 2 3 3 5 4 4 4 5 6 6 6 4 5 5 4 4 3 4 4 4 3 2 3 4 3 4 5 5 6 7 8 7 4 5 5 5 6 7 7 7 4 3 4 3 5 4 4 4 5 4 6 5 6 7 8 7 8 8 8
2 3 2 2 2 3 5 3 4 6 3 5 6 5 6 7 8 5 5 7 9 5 5 5 4 2 2 4 5 5 7 4 6 7 5 4 5 6 5 5 5 4 4 4 3 3 4 4 6 6 5 4 6 6 6 7 7 7 3 4 3 3 3 5 6 6 5 6 4 4 5 6 5 5 5 5 5 5 6 5 6 6 6 7 7 8
2 3 2 3 1 4 8 4 8 8 11 11 9 8 9 8 8 7 8 6 5 3 3 3 4 4 5 4 8 7 9 4 5 8 5 5 4 4 5 6 5 4 3 3 1 2 1 3 4 4 4 4 4 5 6 6 7 6 4 3 2 2 4 5 7 5 6 6 4 4 5 6 8 7 4 6 6 6 6 6 6 8 9 10 9 9
1 5 3 3 4 6 10 14 14 11 10 6 5 8 8 6 5 6 7 8 7 8 7 5 6 5 7 8 6 5 6 9 7 7 6 5 4 4 6 5 3 4 3 3 2 3 3 2 4 4 4 6 1 0 2 3 3 2 2 3 3 4 6 5 6 5 4 4 4 4 4 4 4 5 5 4 5 6 6 7 7 8 8 8 4 5
3 4 2 1 3 4 7 8 1 4 3 3 3 3 1 1 3 6 4 6 7 9 9 8 8 7 8 7 7 7 9 8 5 4 6 6 6 6 4 4 4 4 4 2 2 2 3 3 3 5 6 7 2 2 3 3 3 3 3 3 3 4 6 4 3 3 4 4 3 3 4 4 4 4 4 5 5 5 6 9 10 8 8 7 10 12
9 7 6 6 3 7 6 8 5 4 6 7 6 3 2 2 2 3 7 9 8 8 7 7 8 7 10 10 8 8 9 9 7 5 5 6 6 4 4 4 4 4 3 1 3 2 2 3 2 2 7 8 4 4 3 5 4 2 2 3 2 4 4 2 3 2 3 3 4 4 3 3 3 4 4 4 4 4 4 4 6 13 16 14 10 9
Wind_Direction
305 300 282 286 290 294 292 222 244 261 269 276 275 271 267 271 272 272 267 253 178 248 255 253 255 259 262 260 260 257 255 256 254 254 255 253 249 253 254 235 221 200 174 152 149 146 142 134 135 139 140 138 134 136 136 138 142 144 143 141 140 142 142 141 137 136 132 128 117 101 110 119 130 122 105 88 94 109 109 123 118 110 101 103 110 105
252 281 274 252 261 282 283 275 254 263 266 266 267 265 266 258 270 267 272 230 179 208 269 252 254 258 261 261 258 254 250 248 243 244 248 250 249 248 252 243 222 167 122 138 135 133 134 141 143 143 135 137 139 151 147 148 145 140 138 138 135 136 138 141 142 139 133 142 148 141 143 138 139 132 130 129 151 127 115 121 119 107 108 114 105 99
273 264 270 300 310 284 259 252 246 263 272 267 255 259 265 262 264 274 268 232 183 206 270 265 265 269 264 261 258 248 244 245 244 241 245 247 249 247 242 244 200 140 146 145 143 139 142 146 148 142 147 153 154 147 152 143 135 142 149 143 139 124 138 141 140 141 140 133 123 130 138 145 121 73 90 111 126 129 118 115 108 104 112 113 104 108
306 290 115 88 96 292 282 257 257 260 255 260 260 259 258 267 290 296 157 165 190 198 274 283 283 278 272 266 260 253 247 244 244 243 245 241 246 247 243 236 168 155 148 150 150 147 144 151 147 148 150 152 145 147 145 150 150 153 150 150 154 155 153 152 148 139 125 113 93 86 110 110 95 132 115 100 115 113 120 117 107 98 106 106 111 114
270 275 296 300 284 270 276 280 258 258 272 267 257 258 266 270 263 253 286 168 186 232 254 277 282 280 256 256 251 239 230 236 239 238 242 242 237 243 248 235 179 164 162 153 150 150 150 153 156 155 151 151 156 160 162 162 162 160 158 155 150 145 142 142 145 133 123 112 103 99 86 89 91 84 111 132 155 160 137 131 129 109 112 119 127 143
272 286 324 333 318 245 255 277 249 252 278 286 274 257 256 258 269 274 270 280 280 277 215 198 297 268 257 235 246 251 232 216 220 227 233 234 224 223 232 226 193 172 165 160 162 160 160 157 154 156 155 151 152 160 163 163 161 152 149 148 142 151 158 156 145 137 138 139 138 138 140 152 143 150 170 184 174 169 166 159 119 116 124 134 147 160
279 356 4 322 305 294 268 266 262 226 263 293 307 235 265 264 263 266 265 232 261 262 166 177 224 281 285 261 241 233 236 229 222 219 226 227 218 214 217 197 182 179 169 166 157 159 158 160 157 162 164 161 161 163 164 163 154 148 150 151 150 151 154 152 152 153 148 144 152 157 165 168 166 169 183 143 123 143 142 130 137 132 137 150 155 152
199 287 21 45 297 277 279 275 220 186 260 283 21 334 279 269 258 253 254 224 246 277 241 198 216 267 291 274 248 247 245 240 233 224 222 222 213 202 206 178 183 173 161 159 160 161 159 159 162 164 171 169 165 158 156 154 154 156 156 155 154 153 157 161 161 164 166 160 161 161 168 175 175 185 144 150 144 130 128 134 136 139 139 147 155 155
43 308 152 310 252 264 264 255 292 179 242 284 318 288 262 250 253 256 248 240 241 271 267 221 198 249 252 260 229 225 237 237 234 226 222 217 204 193 195 189 183 171 158 158 159 162 163 167 170 163 164 164 158 159 159 161 161 150 149 156 156 156 163 162 162 162 166 166 168 163 158 165 177 100 119 128 130 135 141 137 139 141 141 152 158 171
276 220 234 165 252 277 259 290 212 185 264 284 311 294 276 261 248 241 238 238 244 233 250 217 183 228 266 273 265 231 235 238 226 217 216 209 196 174 178 182 178 174 168 164 164 167 170 168 163 165 153 158 159 157 145 140 135 147 159 157 160 166 166 164 164 160 165 169 166 158 169 162 138 124 121 141 146 147 155 148 152 151 157 162 170 174
274 150 146 194 245 251 322 290 231 234 242 311 325 295 279 262 247 232 224 223 261 243 249 168 181 197 274 296 276 243 247 243 227 208 205 196 187 171 175 172 166 168 164 166 166 169 168 160 158 144 154 149 141 143 152 154 159 160 164 166 168 169 164 164 166 164 166 166 177 176 163 161 148 150 147 146 149 153 159 160 165 166 163 164 170 174
287 254 146 238 260 250 335 299 221 244 292 341 299 298 301 263 209 214 214 183 237 259 216 162 183 192 230 269 246 263 298 269 235 203 192 185 181 170 166 166 167 165 160 153 157 157 153 145 145 145 149 150 147 157 158 156 162 168 168 163 164 169 168 163 165 170 168 169 180 171 168 162 153 155 157 163 165 169 173 167 164 162 154 166 167 177
331 165 238 266 183 210 251 284 254 170 213 281 295 297 304 298 243 232 161 219 212 247 71 163 171 198 228 251 294 297 286 280 233 208 188 174 172 164 160 162 163 166 159 157 152 150 152 152 154 157 157 155 163 168 169 165 164 166 167 172 174 177 169 172 174 177 175 177 177 171 168 167 150 166 162 159 153 173 177 163 164 168 175 169 175 185
307 22 344 224 124 187 240 301 321 300 167 306 328 323 307 316 290 281 262 245 270 248 102 157 174 227 285 279 341 315 310 279 225 225 194 165 159 161 160 163 160 154 159 158 158 159 159 159 162 162 163 168 171 171 170 166 171 174 175 178 180 178 174 172 178 181 181 181 174 169 170 174 167 171 170 174 175 184 187 173 180 183 182 178 182 178
336 353 130 42 340 131 213 241 291 278 304 287 234 274 288 274 294 293 293 284 297 320 29 126 146 246 260 19 328 299 286 290 276 214 185 159 152 157 158 157 153 150 156 157 161 167 167 165 163 164 167 170 172 171 168 170 176 176 178 181 182 179 178 176 182 184 182 177 175 178 178 178 179 176 178 186 192 186 183 170 183 197 191 184 178 177
244 242 269 119 267 139 248 204 227 294 263 220 247 240 261 303 351 265 285 310 297 301 293 186 244 46 279 156 349 325 296 260 226 196 169 165 139 132 140 143 150 153 157 163 165 169 170 161 161 161 163 167 169 170 172 176 178 182 185 186 187 184 181 180 181 184 181 178 179 180 179 183 182 173 174 189 189 177 166 171 189 192 193 181 157 158
293 285 178 267 167 223 241 220 222 143 327 359 309 324 310 289 244 261 277 245 257 245 243 173 252 204 237 222 5 3 18 65 179 175 166 161 136 140 148 148 150 153 157 165 168 166 165 160 163 167 167 164 165 171 181 182 183 185 184 187 188 186 182 182 187 185 177 174 176 181 179 181 180 172 180 188 183 169 168 172 191 195 190 171 165 160
322 285 309 316 177 164 247 212 275 258 220 293 299 350 295 217 233 257 301 313 270 278 328 60 326 355 356 22 1 357 13 323 163 168 160 156 143 143 142 150 163 163 165 165 165 160 163 168 167 168 170 171 175 178 182 187 188 187 184 185 187 187 178 179 179 178 179 179 182 182 187 185 172 167 182 191 182 167 171 188 201 191 179 190 182 163
299 296 239 206 278 244 155 217 247 214 208 237 299 10 347 348 305 228 278 308 343 317 320 319 317 67 10 331 346 345 349 343 147 151 154 150 163 152 146 147 152 161 164 164 166 160 165 169 171 173 173 176 177 180 185 182 186 186 187 188 189 188 179 181 179 181 181 184 182 181 177 176 176 169 186 194 182 168 184 194 197 190 188 181 168 167
246 283 283 161 212 301 260 208 303 132 182 292 343 283 145 232 267 287 308 310 279 297 308 8 231 27 1 328 325 326 326 334 93 159 157 159 156 142 140 148 158 164 167 168 167 171 173 176 179 180 178 178 179 179 180 182 183 186 187 185 187 179 178 181 190 186 188 189 181 178 171 181 180 181 189 189 177 182 192 195 185 181 181 190 178 181
231 192 287 301 204 267 288 169 290 338 322 289 269 276 193 219 244 245 264 262 301 312 303 309 334 49 354 325 316 317 319 332 352 138 141 140 142 138 153 155 156 160 161 164 167 170 172 178 182 183 183 182 180 179 182 186 188 193 192 185 184 186 189 193 190 187 191 186 191 179 185 188 188 189 184 181 183 187 191 189 177 182 182 168 187 176
223 210 260 300 325 326 294 108 13 342 26 293 312 302 322 335 344 337 313 134 319 285 315 317 337 78 354 345 325 312 319 335 339 1 111 113 131 132 137 150 146 152 159 163 171 173 173 179 179 177 180 180 180 182 181 183 188 191 193 192 190 197 202 194 189 196 193 191 194 188 190 192 188 179 183 189 194 189 182 186 176 172 168 187 190 176
291 303 278 284 258 270 284 83 90 147 158 251 271 294 118 264 274 290 295 351 334 241 238 252 287 71 333 346 332 320 322 343 339 348 86 90 117 119 119 137 148 151 154 160 166 170 171 172 175 174 175 175 176 179 183 183 188 190 192 192 196 201 204 199 196 194 193 190 185 188 188 186 189 189 193 193 195 194 191 189 184 176 181 191 180 176
133 254 288 262 248 240 274 76 121 87 149 239 192 201 263 303 301 245 270 339 312 307 315 308 258 56 14 2 343 339 358 16 44 352 73 99 107 109 124 140 141 149 153 157 160 159 165 169 167 170 174 181 186 188 188 189 190 193 194 195 197 203 202 197 190 184 181 183 189 191 188 194 194 190 193 197 200 196 195 189 185 175 188 192 177 177
282 156 274 305 320 333 142 141 129 256 210 338 310 304 248 262 242 261 255 260 268 332 308 290 19 352 9 352 349 28 37 33 19 13 347 126 122 122 131 137 142 145 152 157 152 157 160 160 161 165 172 178 186 190 191 191 192 193 196 196 198 201 201 194 181 180 184 180 185 188 195 201 194 193 198 200 196 189 179 181 170 168 186 177 179 174
237 269 259 314 335 336 343 346 343 335 342 310 258 275 246 290 330 342 330 232 286 7 327 8 341 347 323 358 9 23 29 29 27 20 23 46 97 140 131 141 149 146 163 169 159 156 158 162 166 173 182 186 189 189 191 193 195 197 197 200 199 199 195 190 175 183 183 182 188 195 199 200 198 199 201 194 177 174 184 186 192 182 185 178 179 175
252 13 237 237 239 275 278 289 335 5 319 315 307 312 314 329 310 245 241 294 343 312 339 27 330 309 2 358 7 5 14 14 9 8 12 10 8 32 117 124 129 132 157 170 169 173 163 161 175 182 178 185 184 185 189 191 194 198 199 201 201 200 196 188 178 186 188 190 193 194 199 199 200 201 200 190 178 169 175 181 184 174 182 170 174 179
86 266 220 221 239 251 268 281 293 315 286 279 288 302 317 320 330 320 15 349 309 279 32 12 348 348 7 351 359 0 1 357 356 358 351 348 349 351 18 94 135 132 154 170 178 177 175 182 187 187 190 187 184 183 185 186 190 197 200 202 201 200 196 190 189 192 195 192 195 200 196 200 201 196 198 184 175 185 186 184 183 176 178 180 190 185
271 269 23 131 252 248 264 269 282 290 257 262 278 284 294 307 320 345 356 325 338 25 338 331 333 6 352 346 338 345 354 332 319 328 318 303 294 282 145 125 151 149 167 186 193 184 185 187 191 192 189 190 182 183 187 183 184 195 204 206 202 200 199 191 185 192 191 196 206 211 205 194 198 188 200 195 186 187 190 186 178 170 184 191 199 191
202 251 227 166 285 283 279 265 235 223 266 270 263 269 278 284 278 274 287 289 326 340 286 297 319 51 355 335 333 323 325 302 291 276 254 236 231 193 146 140 162 166 195 204 204 197 192 191 190 194 189 187 191 194 193 192 192 197 205 205 202 201 200 195 196 195 192 199 205 204 197 187 195 199 199 197 202 206 198 190 183 180 180 182 184 186
277 304 76 263 305 301 88 96 122 214 12 291 289 290 280 256 262 256 266 281 249 249 300 310 334 40 338 314 308 309 308 276 229 35 12 320 302 61 105 126 146 176 194 215 224 216 208 189 195 187 186 191 193 194 193 196 199 204 207 208 204 202 199 197 197 198 198 204 206 198 196 197 200 199 203 206 203 199 199 190 166 173 170 171 190 191
283 272 95 37 321 298 108 144 179 335 249 225 296 338 351 352 351 349 292 19 4 2 317 297 40 16 353 319 308 291 332 10 18 4 5 12 1 353 32 72 162 176 192 191 184 169 197 206 200 199 200 198 198 196 195 195 200 202 206 204 203 201 197 197 200 201 204 208 203 194 195 196 198 203 209 202 201 200 184 174 180 186 181 169 183 181
178 354 325 347 309 271 174 310 348 128 167 348 12 340 318 308 227 282 243 222 240 279 349 36 12 280 287 347 325 355 353 3 4 1 344 343 346 335 333 328 331 324 332 344 304 242 220 209 206 207 205 200 200 200 203 198 195 202 204 203 203 199 196 197 199 201 201 193 194 193 192 196 203 209 207 202 193 181 172 187 191 194 189 198 184 133
335 219 314 164 307 287 311 2 252 199 33 5 331 330 317 304 336 329 318 304 291 198 353 323 295 323 305 296 321 343 352 352 331 305 272 270 314 337 338 316 302 305 298 281 253 232 223 221 220 209 214 214 207 207 195 187 197 204 205 203 193 190 193 197 201 202 200 192 198 197 199 201 208 211 205 190 182 181 190 193 199 198 194 167 168 190
199 171 196 117 238 293 323 315 95 40 19 65 296 272 251 270 252 271 285 273 272 262 270 275 247 236 241 246 282 303 300 301 294 288 301 221 230 246 303 317 330 323 304 288 265 238 214 197 200 207 213 216 205 186 161 195 205 129 129 148 166 180 187 195 196 200 198 197 198 196 200 206 205 205 197 191 191 189 195 198 197 191 189 183 186 189
215 195 149 218 248 265 307 3 40 41 349 318 333 298 273 251 220 271 303 20 121 234 241 281 288 296 193 248 265 282 292 306 306 265 251 255 206 244 239 299 354 320 300 297 286 319 317 300 249 215 220 186 181 190 198 198 178 171 178 169 177 179 187 186 196 202 199 205 202 199 203 204 207 212 200 192 191 194 200 199 197 195 183 185 189 198
213 103 214 288 86 343 250 233 275 300 319 113 295 211 253 339 358 343 42 352 339 138 193 256 301 300 308 247 184 232 280 329 28 9 318 296 272 232 240 273 267 262 265 274 271 279 296 310 302 303 316 295 218 194 203 138 167 178 161 177 186 180 188 189 199 206 202 208 207 206 202 191 195 195 195 191 191 196 197 191 196 198 160 177 193 198
245 284 208 301 36 116 316 312 351 23 11 280 140 5 322 248 354 39 296 347 320 358 168 243 276 305 310 311 344 325 244 106 34 1 210 271 287 297 299 282 288 263 237 249 230 232 225 221 233 222 225 267 238 198 136 126 167 179 176 180 177 187 194 197 210 206 208 216 214 213 213 210 207 207 190 176 194 200 202 193 186 183 176 192 192 200
33 18 245 266 314 314 308 2 218 120 327 300 11 148 199 124 155 122 268 43 314 298 265 206 287 282 256 296 327 348 33 40 334 279 302 282 207 183 246 229 221 240 259 244 255 265 178 173 279 126 152 196 222 187 162 154 166 171 184 188 186 193 196 207 214 213 215 220 217 212 209 209 203 197 187 189 199 196 196 195 197 180 171 196 191 197
41 340 279 260 63 136 130 213 288 187 241 13 145 162 174 138 123 176 204 12 59 229 243 189 266 288 283 214 231 201 136 132 245 304 1 326 313 270 236 276 277 258 245 240 235 255 301 302 241 181 195 214 220 128 147 151 171 183 194 200 197 204 212 213 215 219 222 217 207 205 201 196 201 203 199 201 201 190 207 197 183 182 186 194 195 196
319 51 4 242 277 131 155 285 287 275 255 270 294 120 126 139 178 47 49 41 167 204 198 189 237 255 256 251 223 314 247 247 271 314 309 296 306 288 213 229 255 278 284 284 259 156 244 234 239 238 215 156 111 137 158 170 175 196 206 206 212 226 224 217 211 208 208 203 202 205 205 203 205 206 207 204 199 193 201 184 185 171 180 191 192 194
154 135 145 353 179 215 196 240 279 272 258 122 87 118 145 157 40 45 4 53 145 204 189 200 214 225 188 229 206 247 293 312 314 310 299 285 252 283 292 294 303 285 257 267 267 225 207 205 221 242 258 232 170 164 175 177 187 197 195 199 219 224 198 195 197 194 192 196 201 202 202 204 204 206 207 205 199 193 192 176 176 180 186 186 184 193
168 156 232 179 133 94 86 302 320 72 13 169 146 132 186 344 1 111 300 243 209 231 170 215 213 208 175 217 227 237 270 277 265 273 284 292 291 288 294 295 276 274 273 259 228 223 223 195 187 193 191 186 185 180 188 186 197 198 196 214 234 221 193 203 201 202 203 201 201 198 197 198 196 200 192 197 196 192 203 189 192 196 185 185 188 195
172 233 229 241 189 343 6 163 39 219 33 166 168 322 215 235 351 159 188 296 185 203 228 234 241 219 200 217 217 228 234 260 274 229 239 236 229 256 256 251 247 247 243 232 243 233 223 254 243 208 177 176 174 179 186 188 197 191 202 229 228 206 192 199 200 200 205 210 216 213 212 205 204 199 195 197 192 192 200 189 193 192 191 186 191 200
190 215 205 334 171 190 221 242 248 199 280 260 238 255 262 284 329 198 181 239 300 248 183 245 256 214 203 212 241 250 271 223 244 232 266 274 285 268 281 273 270 268 255 241 227 198 224 246 241 270 281 209 180 183 187 195 197 191 208 224 181 192 186 184 181 183 197 202 204 210 210 205 216 210 208 203 195 196 196 196 185 193 193 182 197 204
299 193 116 227 233 259 258 238 304 303 259 255 215 236 259 263 221 172 212 239 221 209 188 199 245 283 236 242 261 256 236 289 289 280 251 263 272 278 277 286 279 260 258 261 256 221 226 233 251 246 247 226 202 197 196 202 199 199 217 182 183 181 171 170 175 190 204 200 196 196 186 201 215 217 214 215 215 215 209 197 187 198 190 191 201 202
220 144 158 226 282 15 290 59 177 229 258 255 259 241 233 243 248 202 231 229 246 190 203 226 216 172 180 170 220 271 287 287 279 276 273 278 261 254 253 258 265 237 230 226 193 166 194 199 207 208 210 208 188 199 200 203 215 226 199 173 169 159 148 170 183 196 197 192 198 182 180 192 205 201 199 205 217 220 222 216 210 209 204 198 203 204
238 181 211 213 107 205 249 295 272 252 247 253 255 278 270 239 222 226 232 260 275 292 235 192 173 205 171 200 211 217 257 243 247 264 268 249 260 270 261 247 258 273 224 244 254 233 267 250 238 224 210 230 190 187 196 203 216 216 203 192 156 147 151 170 185 191 198 193 200 198 191 202 199 197 199 198 200 209 215 217 213 212 212 204 201 200
48 140 231 184 196 262 301 272 270 289 278 256 224 234 241 266 279 252 226 243 254 264 252 227 220 218 188 218 166 199 244 252 226 242 260 270 263 255 246 262 265 270 294 271 197 191 239 279 283 294 298 278 302 224 221 234 245 228 207 211 186 173 181 197 192 208 202 198 199 212 197 205 197 202 206 199 201 218 216 208 208 221 237 233 230 224
141 217 146 80 268 261 230 253 115 326 284 303 322 33 66 202 220 270 280 252 230 232 236 243 246 228 239 232 200 195 219 247 219 188 242 247 255 265 277 275 272 268 271 258 287 270 258 245 256 282 277 268 265 291 280 273 252 210 194 191 184 184 203 208 199 208 218 204 206 208 196 208 208 206 212 213 212 215 233 232 230 227 225 239 223 236
204 194 151 216 188 249 236 237 217 235 276 248 254 252 234 178 150 239 256 258 255 231 222 214 243 250 241 241 221 212 220 224 216 175 220 231 230 218 241 262 268 266 251 225 262 232 225 247 246 277 279 278 317 306 289 282 276 269 205 188 187 185 210 198 225 237 239 211 225 211 208 203 210 204 212 217 220 226 238 248 228 231 239 243 246 233